JF2ZGN-13 Weather Reports


time (UTC)temp
C
wind
direction
speed
KPH
gust
KPH
rain 1hr
cm
rain 24hr
cm
rain mn
cm
humidity
%
barometer
mb
20260502130338 13 62 0.0 1.6 0.00 0.00 0.00 35 906.5
20260502123337 13 0 0.0 0.0 0.00 0.00 0.00 37 906.4
20260502122337 13 267 0.0 1.6 0.00 0.00 0.00 44 906.3
20260502121337 14 255 0.0 0.0 0.00 0.00 0.00 45 906.2
20260502120335 14 0 0.0 0.0 0.00 0.00 0.00 45 906.1
20260502115335 14 82 3.2 4.8 0.00 0.00 0.00 45 906.0
20260502114336 14 94 3.2 4.8 0.00 0.00 0.00 45 906.0
20260502113335 13 114 0.0 3.2 0.00 0.00 0.00 43 905.8
20260502112334 13 0 0.0 0.0 0.00 0.00 0.00 43 905.8
20260502111333 14 0 0.0 0.0 0.00 0.00 0.00 44 905.8
20260502110333 14 0 0.0 0.0 0.00 0.00 0.00 41 905.7
20260502105332 15 120 3.2 6.4 0.00 0.00 0.00 45 905.4
20260502104332 15 101 0.0 6.4 0.00 0.00 0.00 41 905.2
20260502103331 15 253 0.0 3.2 0.00 0.00 0.00 34 905.5
20260502102331 15 0 0.0 0.0 0.00 0.00 0.00 35 905.3
20260502101330 15 114 0.0 3.2 0.00 0.00 0.00 38 905.2
20260502100330 15 104 0.0 0.0 0.00 0.00 0.00 33 905.1
20260502091328 15 332 3.2 6.4 0.00 0.00 0.00 35 904.7
20260502090327 15 326 3.2 6.4 0.00 0.00 0.00 35 904.7
20260502071322 16 288 8.0 14.5 0.00 0.00 0.00 50 903.9
20260502070322 17 283 8.0 12.9 0.00 0.00 0.00 47 903.8
20260502065321 17 274 4.8 12.9 0.00 0.00 0.00 45 903.5
20260502064321 18 274 6.4 11.3 0.00 0.00 0.00 44 903.6
20260502063321 18 256 4.8 11.3 0.00 0.00 0.00 43 903.2
20260502061319 19 264 6.4 12.9 0.00 0.00 0.00 31 903.1
20260502060319 19 321 4.8 11.3 0.00 0.00 0.00 29 902.9
20260502055319 19 266 6.4 12.9 0.00 0.00 0.00 28 903.0
20260502054318 19 277 8.0 16.1 0.00 0.00 0.00 34 902.9
20260502052317 19 290 6.4 12.9 0.00 0.00 0.00 35 902.7
20260502050317 20 336 4.8 14.5 0.00 0.00 0.00 43 902.5
20260502045316 20 287 4.8 8.0 0.00 0.00 0.00 44 902.4
20260502044316 20 260 6.4 16.1 0.00 0.00 0.00 43 902.3
20260502043315 19 285 4.8 17.7 0.00 0.00 0.00 41 902.3
20260502042314 18 266 6.4 16.1 0.00 0.00 0.00 44 902.1
20260502041314 18 321 4.8 11.3 0.00 0.00 0.00 42 902.0
20260502040313 19 270 6.4 12.9 0.00 0.00 0.00 41 902.0
20260502035314 20 297 4.8 12.9 0.00 0.00 0.00 37 901.9
20260502034313 20 342 3.2 9.7 0.00 0.00 0.00 37 901.9
20260502033312 19 325 4.8 12.9 0.00 0.00 0.00 39 901.6
20260502032311 19 309 1.6 8.0 0.00 0.00 0.00 38 901.5
20260502031311 19 323 1.6 6.4 0.00 0.00 0.00 36 901.5
20260502030311 18 253 4.8 12.9 0.00 0.00 0.00 25 901.4
20260502025310 18 211 3.2 12.9 0.00 0.00 0.00 32 901.4
20260502024310 18 222 4.8 12.9 0.00 0.00 0.00 36 901.4
20260502023309 18 236 9.7 20.9 0.00 0.00 0.00 35 901.3
20260502021308 18 217 6.4 19.3 0.00 0.00 0.00 30 901.0
20260502020308 17 222 9.7 17.7 0.00 0.00 0.00 33 900.9
20260502015307 17 219 6.4 14.5 0.00 0.00 0.00 33 900.9
20260502014307 17 235 6.4 19.3 0.00 0.00 0.00 35 900.7
20260502013306 18 195 4.8 11.3 0.00 0.00 0.00 39 900.4
20260502012307 18 200 3.2 8.0 0.00 0.00 0.00 44 900.3
20260502011306 17 197 8.0 17.7 0.00 0.00 0.00 38 900.3
20260502010305 18 195 6.4 20.9 0.00 0.00 0.00 34 900.1
20260502005306 17 197 4.8 14.5 0.00 0.00 0.00 30 899.8
20260502004304 18 231 4.8 11.3 0.00 0.00 0.00 37 899.6
20260502003304 18 128 1.6 4.8 0.00 0.00 0.00 38 899.4
20260502002306 18 104 1.6 8.0 0.00 0.00 0.00 35 899.2
20260502001303 17 200 1.6 6.4 0.00 0.00 0.00 35 899.1
20260502000303 16 274 6.4 12.9 0.00 0.00 0.00 29 899.0
20260501235305 15 201 4.8 11.3 0.00 0.00 0.00 31 898.8
20260501234301 13 253 6.4 12.9 0.00 0.00 0.00 43 898.7
20260501233302 13 284 8.0 14.5 0.00 0.00 0.00 41 898.6
20260501232301 13 291 9.7 14.5 0.00 0.00 0.00 44 898.4
20260501231300 12 276 8.0 17.7 0.00 0.00 0.00 44 898.3
20260501230300 11 283 8.0 16.1 0.00 0.00 0.00 45 898.0
20260501225300 11 263 14.5 29.0 0.00 0.00 0.00 45 897.6
20260501224259 11 273 16.1 30.6 0.00 0.00 0.00 47 897.2
20260501223258 11 312 12.9 35.4 0.00 0.00 0.00 51 896.7
20260501222258 11 332 9.7 24.1 0.00 0.00 0.00 48 896.6
20260501221258 11 4 6.4 20.9 0.00 0.00 0.00 54 896.3
20260501220257 11 332 4.8 20.9 0.00 0.00 0.00 53 896.2
20260501215256 11 311 4.8 11.3 0.00 0.00 0.00 48 896.1
20260501214256 10 284 8.0 17.7 0.00 0.00 0.00 46 895.9
20260501213256 10 252 9.7 17.7 0.00 0.00 0.00 50 895.5
20260501212255 10 259 6.4 14.5 0.00 0.00 0.00 48 895.5
20260501211255 9 255 9.7 19.3 0.00 0.00 0.00 55 895.0
20260501210254 9 255 8.0 17.7 0.00 0.00 0.00 61 894.7
20260501205253 9 257 9.7 19.3 0.00 0.00 0.00 62 894.5
20260501204253 8 293 11.3 20.9 0.00 0.00 0.00 62 894.2
20260501203252 9 287 6.4 14.5 0.00 0.00 0.00 59 894.0
20260501202252 9 329 8.0 20.9 0.00 0.00 0.00 59 893.9
20260501201251 9 333 8.0 20.9 0.00 0.00 0.00 61 893.4
20260501200251 9 305 6.4 17.7 0.00 0.00 0.00 61 892.7
20260501195250 8 3 6.4 17.7 0.00 0.00 0.00 71 892.6
20260501194250 7 329 6.4 16.1 0.00 0.00 0.00 80 892.5
20260501193250 6 277 12.9 25.7 0.00 0.00 0.00 84 892.4
20260501192249 6 284 16.1 24.1 0.00 0.00 0.00 84 892.0
20260501191249 6 260 14.5 29.0 0.00 0.00 0.00 83 891.7
20260501190248 7 277 16.1 29.0 0.00 0.00 0.00 81 891.3
20260501185248 7 273 24.1 41.8 0.00 0.00 0.00 78 890.8
20260501184247 6 274 25.7 40.2 0.00 0.00 0.00 83 890.5
20260501183248 6 253 30.6 56.3 0.00 0.00 0.00 81 890.1
20260501182246 6 264 27.4 53.1 0.00 0.00 0.00 81 889.8
20260501181246 6 252 27.4 54.7 0.00 0.00 0.00 83 889.7
20260501180246 6 255 27.4 61.2 0.00 0.00 0.00 83 889.2
20260501175245 6 231 27.4 78.9 0.00 0.00 0.00 85 888.9
20260501174245 6 262 29.0 64.4 0.00 0.00 0.00 84 888.5
20260501173244 6 270 32.2 62.8 0.00 0.00 0.00 81 888.4
20260501172244 6 293 33.8 66.0 0.00 0.00 0.00 81 888.0
20260501171244 6 267 33.8 69.2 0.00 0.00 0.00 82 887.5
20260501170243 6 253 38.6 74.0 0.00 0.00 0.00 81 887.5
20260501165242 6 274 38.6 69.2 0.00 0.00 0.00 81 887.4
20260501164243 6 277 40.2 78.9 0.00 0.00 0.00 79 887.3
20260501163241 6 263 43.5 93.3 0.00 0.00 0.00 79 886.8
20260501162241 6 266 41.8 91.7 0.00 0.00 0.00 80 886.9
20260501161241 6 262 41.8 90.1 0.00 0.00 0.00 79 887.2
20260501160240 6 260 33.8 96.6 0.00 0.00 0.00 80 887.4
20260501155240 6 259 43.5 98.2 0.00 0.00 0.00 79 887.5
20260501154239 6 276 43.5 93.3 0.00 0.00 0.00 80 886.7
20260501152239 6 284 48.3 95.0 0.00 0.00 0.00 80 886.4
20260501151238 6 231 48.3 85.3 0.00 0.00 0.00 81 886.7
20260501150237 5 281 48.3 96.6 0.00 0.00 0.00 83 885.9
20260501145237 6 266 46.7 93.3 0.00 0.00 12.04 82 886.4
20260501144236 5 287 43.5 88.5 0.00 0.00 12.04 85 887.0
20260501143236 5 267 38.6 69.2 0.00 0.00 12.04 83 887.3
20260501142235 5 232 38.6 70.8 0.00 0.00 12.04 83 887.7